owner,sensor,date,latitude,longitude,vertical_datum,sea_water_practical_salinity,qcFlag 
TABS,ioos:station:wmo:42050:1,2016-02-01T00:00:00Z,28.8425,-94.2433,2.0,34.4914,11111222 
TABS,ioos:station:wmo:42050:1,2016-02-01T00:30:00Z,28.8425,-94.2433,2.0,34.509,11111222 
TABS,ioos:station:wmo:42050:1,2016-02-01T01:00:00Z,28.8425,-94.2433,2.0,34.5275,11111222 
TABS,ioos:station:wmo:42050:1,2016-02-01T01:30:00Z,28.8425,-94.2433,2.0,34.521,11111222 
TABS,ioos:station:wmo:42050:1,2016-02-01T02:00:00Z,28.8425,-94.2433,2.0,34.5326,11111222 
TABS,ioos:station:wmo:42050:1,2016-02-01T02:30:00Z,28.8425,-94.2433,2.0,34.5153,11111222 
TABS,ioos:station:wmo:42050:1,2016-02-01T03:00:00Z,28.8425,-94.2433,2.0,34.5168,11111222 
TABS,ioos:station:wmo:42050:1,2016-02-01T03:30:00Z,28.8425,-94.2433,2.0,34.5196,11111222 
TABS,ioos:station:wmo:42050:1,2016-02-01T04:00:00Z,28.8425,-94.2433,2.0,34.5085,11111222 
TABS,ioos:station:wmo:42050:1,2016-02-01T04:30:00Z,28.8425,-94.2433,2.0,34.5034,11111222 
TABS,ioos:station:wmo:42050:1,2016-02-01T05:00:00Z,28.8425,-94.2433,2.0,34.4914,11111222 
TABS,ioos:station:wmo:42050:1,2016-02-01T05:30:00Z,28.8425,-94.2433,2.0,34.4817,11111222 
TABS,ioos:station:wmo:42050:1,2016-02-01T06:00:00Z,28.8425,-94.2433,2.0,34.4739,11111222 
TABS,ioos:station:wmo:42050:1,2016-02-01T06:30:00Z,28.8425,-94.2433,2.0,34.4625,11111222 
TABS,ioos:station:wmo:42050:1,2016-02-01T07:00:00Z,28.8425,-94.2433,2.0,34.4521,11111222 
TABS,ioos:station:wmo:42050:1,2016-02-01T07:30:00Z,28.8425,-94.2433,2.0,34.4492,11111222 
TABS,ioos:station:wmo:42050:1,2016-02-01T08:00:00Z,28.8425,-94.2433,2.0,34.455,11111222 
TABS,ioos:station:wmo:42050:1,2016-02-01T08:30:00Z,28.8425,-94.2433,2.0,34.4443,11111222 
TABS,ioos:station:wmo:42050:1,2016-02-01T09:00:00Z,28.8425,-94.2433,2.0,34.4456,11111222 
TABS,ioos:station:wmo:42050:1,2016-02-01T09:30:00Z,28.8425,-94.2433,2.0,34.4454,11111222 
TABS,ioos:station:wmo:42050:1,2016-02-01T10:00:00Z,28.8425,-94.2433,2.0,34.4398,11111222 
TABS,ioos:station:wmo:42050:1,2016-02-01T10:30:00Z,28.8425,-94.2433,2.0,34.4366,11111222 
TABS,ioos:station:wmo:42050:1,2016-02-01T11:00:00Z,28.8425,-94.2433,2.0,34.4316,11111222 
TABS,ioos:station:wmo:42050:1,2016-02-01T11:30:00Z,28.8425,-94.2433,2.0,34.4252,11111222 
TABS,ioos:station:wmo:42050:1,2016-02-01T12:00:00Z,28.8425,-94.2433,2.0,34.4218,11111222 
TABS,ioos:station:wmo:42050:1,2016-02-01T12:30:00Z,28.8425,-94.2433,2.0,34.42,11111222 
TABS,ioos:station:wmo:42050:1,2016-02-01T13:00:00Z,28.8425,-94.2433,2.0,34.4094,11111222 
TABS,ioos:station:wmo:42050:1,2016-02-01T13:30:00Z,28.8425,-94.2433,2.0,34.3955,11111222 
TABS,ioos:station:wmo:42050:1,2016-02-01T14:00:00Z,28.8425,-94.2433,2.0,34.3922,11111222 
TABS,ioos:station:wmo:42050:1,2016-02-01T14:30:00Z,28.8425,-94.2433,2.0,34.3969,11111222 
TABS,ioos:station:wmo:42050:1,2016-02-01T15:00:00Z,28.8425,-94.2433,2.0,34.3951,11111222 
TABS,ioos:station:wmo:42050:1,2016-02-01T15:30:00Z,28.8425,-94.2433,2.0,34.4001,11111222 
TABS,ioos:station:wmo:42050:1,2016-02-01T16:00:00Z,28.8425,-94.2433,2.0,34.4014,11111222 
TABS,ioos:station:wmo:42050:1,2016-02-01T16:30:00Z,28.8425,-94.2433,2.0,34.4051,11111222 
TABS,ioos:station:wmo:42050:1,2016-02-01T17:00:00Z,28.8425,-94.2433,2.0,34.4105,11111222 
TABS,ioos:station:wmo:42050:1,2016-02-01T17:30:00Z,28.8425,-94.2433,2.0,34.4092,11111222 
TABS,ioos:station:wmo:42050:1,2016-02-01T18:00:00Z,28.8425,-94.2433,2.0,34.3997,11111222 
TABS,ioos:station:wmo:42050:1,2016-02-01T18:30:00Z,28.8425,-94.2433,2.0,34.412,11111222 
TABS,ioos:station:wmo:42050:1,2016-02-01T19:00:00Z,28.8425,-94.2433,2.0,34.4754,11111222 
TABS,ioos:station:wmo:42050:1,2016-02-01T19:30:00Z,28.8425,-94.2433,2.0,34.4421,11111222 
TABS,ioos:station:wmo:42050:1,2016-02-01T20:00:00Z,28.8425,-94.2433,2.0,34.4458,11111222 
TABS,ioos:station:wmo:42050:1,2016-02-01T20:30:00Z,28.8425,-94.2433,2.0,34.4865,11111222 
TABS,ioos:station:wmo:42050:1,2016-02-01T21:00:00Z,28.8425,-94.2433,2.0,34.4143,11111222 
TABS,ioos:station:wmo:42050:1,2016-02-01T21:30:00Z,28.8425,-94.2433,2.0,34.4378,11111222 
TABS,ioos:station:wmo:42050:1,2016-02-01T22:00:00Z,28.8425,-94.2433,2.0,34.4419,11111222 
TABS,ioos:station:wmo:42050:1,2016-02-01T22:30:00Z,28.8425,-94.2433,2.0,34.4457,11111222 
TABS,ioos:station:wmo:42050:1,2016-02-01T23:00:00Z,28.8425,-94.2433,2.0,34.459,11111222 
TABS,ioos:station:wmo:42050:1,2016-02-01T23:30:00Z,28.8425,-94.2433,2.0,34.4406,11111222 
TABS,ioos:station:wmo:42050:1,2016-02-02T00:00:00Z,28.8425,-94.2433,2.0,34.4356,11111222 
TABS,ioos:station:wmo:42050:1,2016-02-02T00:30:00Z,28.8425,-94.2433,2.0,34.4677,11111222 
TABS,ioos:station:wmo:42050:1,2016-02-02T01:00:00Z,28.8425,-94.2433,2.0,34.4984,11111222 
TABS,ioos:station:wmo:42050:1,2016-02-02T01:30:00Z,28.8425,-94.2433,2.0,34.5076,11111222 
TABS,ioos:station:wmo:42050:1,2016-02-02T02:00:00Z,28.8425,-94.2433,2.0,34.4863,11111222 
TABS,ioos:station:wmo:42050:1,2016-02-02T02:30:00Z,28.8425,-94.2433,2.0,34.4677,11111222 
TABS,ioos:station:wmo:42050:1,2016-02-02T03:00:00Z,28.8425,-94.2433,2.0,34.333,11111222 
TABS,ioos:station:wmo:42050:1,2016-02-02T03:30:00Z,28.8425,-94.2433,2.0,34.0794,11111222 
TABS,ioos:station:wmo:42050:1,2016-02-02T04:00:00Z,28.8425,-94.2433,2.0,33.9728,11111222 
TABS,ioos:station:wmo:42050:1,2016-02-02T04:30:00Z,28.8425,-94.2433,2.0,33.8562,11111222 
TABS,ioos:station:wmo:42050:1,2016-02-02T05:00:00Z,28.8425,-94.2433,2.0,33.8356,11111222 
TABS,ioos:station:wmo:42050:1,2016-02-02T05:30:00Z,28.8425,-94.2433,2.0,33.8514,11111222 
TABS,ioos:station:wmo:42050:1,2016-02-02T06:00:00Z,28.8425,-94.2433,2.0,33.895,11111222 
TABS,ioos:station:wmo:42050:1,2016-02-02T06:30:00Z,28.8425,-94.2433,2.0,33.9291,11111222 
TABS,ioos:station:wmo:42050:1,2016-02-02T07:00:00Z,28.8425,-94.2433,2.0,33.8973,11111222 
TABS,ioos:station:wmo:42050:1,2016-02-02T07:30:00Z,28.8425,-94.2433,2.0,33.9182,11111222 
TABS,ioos:station:wmo:42050:1,2016-02-02T08:00:00Z,28.8425,-94.2433,2.0,33.9126,11111222 
TABS,ioos:station:wmo:42050:1,2016-02-02T08:30:00Z,28.8425,-94.2433,2.0,33.8597,11111222 
TABS,ioos:station:wmo:42050:1,2016-02-02T09:00:00Z,28.8425,-94.2433,2.0,33.8708,11111222 
TABS,ioos:station:wmo:42050:1,2016-02-02T09:30:00Z,28.8425,-94.2433,2.0,33.8386,11111222 
TABS,ioos:station:wmo:42050:1,2016-02-02T10:00:00Z,28.8425,-94.2433,2.0,33.8156,11111222 
TABS,ioos:station:wmo:42050:1,2016-02-02T10:30:00Z,28.8425,-94.2433,2.0,33.8079,11111222 
TABS,ioos:station:wmo:42050:1,2016-02-02T11:00:00Z,28.8425,-94.2433,2.0,33.7783,11111222 
TABS,ioos:station:wmo:42050:1,2016-02-02T11:30:00Z,28.8425,-94.2433,2.0,33.7451,11111222 
TABS,ioos:station:wmo:42050:1,2016-02-02T12:00:00Z,28.8425,-94.2433,2.0,33.6863,11111222 
TABS,ioos:station:wmo:42050:1,2016-02-02T12:30:00Z,28.8425,-94.2433,2.0,33.6431,11111222 
TABS,ioos:station:wmo:42050:1,2016-02-02T13:00:00Z,28.8425,-94.2433,2.0,33.5553,11111222 
TABS,ioos:station:wmo:42050:1,2016-02-02T13:30:00Z,28.8425,-94.2433,2.0,33.5622,11111222 
TABS,ioos:station:wmo:42050:1,2016-02-02T14:00:00Z,28.8425,-94.2433,2.0,33.4678,11111222 
TABS,ioos:station:wmo:42050:1,2016-02-02T14:30:00Z,28.8425,-94.2433,2.0,33.3938,11111222 
TABS,ioos:station:wmo:42050:1,2016-02-02T15:00:00Z,28.8425,-94.2433,2.0,33.2684,11111222 
TABS,ioos:station:wmo:42050:1,2016-02-02T15:30:00Z,28.8425,-94.2433,2.0,33.2116,11111222 
TABS,ioos:station:wmo:42050:1,2016-02-02T16:00:00Z,28.8425,-94.2433,2.0,33.2244,11111222 
TABS,ioos:station:wmo:42050:1,2016-02-02T16:30:00Z,28.8425,-94.2433,2.0,33.2063,11111222 
TABS,ioos:station:wmo:42050:1,2016-02-02T17:00:00Z,28.8425,-94.2433,2.0,33.2225,11111222 
TABS,ioos:station:wmo:42050:1,2016-02-02T17:30:00Z,28.8425,-94.2433,2.0,33.2058,11111222 
TABS,ioos:station:wmo:42050:1,2016-02-02T18:00:00Z,28.8425,-94.2433,2.0,33.2376,11111222 
TABS,ioos:station:wmo:42050:1,2016-02-02T18:30:00Z,28.8425,-94.2433,2.0,33.208,11111222 
TABS,ioos:station:wmo:42050:1,2016-02-02T19:00:00Z,28.8425,-94.2433,2.0,33.2275,11111222 
TABS,ioos:station:wmo:42050:1,2016-02-02T19:30:00Z,28.8425,-94.2433,2.0,33.2193,11111222 
TABS,ioos:station:wmo:42050:1,2016-02-02T20:00:00Z,28.8425,-94.2433,2.0,33.2147,11111222 
TABS,ioos:station:wmo:42050:1,2016-02-02T20:30:00Z,28.8425,-94.2433,2.0,33.2088,11111222 
TABS,ioos:station:wmo:42050:1,2016-02-02T21:00:00Z,28.8425,-94.2433,2.0,33.2047,11111222 
TABS,ioos:station:wmo:42050:1,2016-02-02T21:30:00Z,28.8425,-94.2433,2.0,33.2005,11111222 
TABS,ioos:station:wmo:42050:1,2016-02-02T22:00:00Z,28.8425,-94.2433,2.0,33.1969,11111222 
TABS,ioos:station:wmo:42050:1,2016-02-02T22:30:00Z,28.8425,-94.2433,2.0,33.1888,11111222 
TABS,ioos:station:wmo:42050:1,2016-02-02T23:00:00Z,28.8425,-94.2433,2.0,33.1892,11111222 
TABS,ioos:station:wmo:42050:1,2016-02-02T23:30:00Z,28.8425,-94.2433,2.0,33.1904,11111222 
TABS,ioos:station:wmo:42050:1,2016-02-03T00:00:00Z,28.8425,-94.2433,2.0,33.1883,11111222 
TABS,ioos:station:wmo:42050:1,2016-02-03T00:30:00Z,28.8425,-94.2433,2.0,33.1915,11111222 
TABS,ioos:station:wmo:42050:1,2016-02-03T01:00:00Z,28.8425,-94.2433,2.0,33.1915,11111222 
TABS,ioos:station:wmo:42050:1,2016-02-03T01:30:00Z,28.8425,-94.2433,2.0,33.1989,11111222 
TABS,ioos:station:wmo:42050:1,2016-02-03T02:00:00Z,28.8425,-94.2433,2.0,33.1963,11111222 
TABS,ioos:station:wmo:42050:1,2016-02-03T02:30:00Z,28.8425,-94.2433,2.0,33.1938,11111222 
TABS,ioos:station:wmo:42050:1,2016-02-03T03:00:00Z,28.8425,-94.2433,2.0,32.7033,11111222 
TABS,ioos:station:wmo:42050:1,2016-02-03T03:30:00Z,28.8425,-94.2433,2.0,32.4958,11111222 
TABS,ioos:station:wmo:42050:1,2016-02-03T04:00:00Z,28.8425,-94.2433,2.0,32.2613,11111222 
TABS,ioos:station:wmo:42050:1,2016-02-03T04:30:00Z,28.8425,-94.2433,2.0,31.9645,11111222 
TABS,ioos:station:wmo:42050:1,2016-02-03T05:00:00Z,28.8425,-94.2433,2.0,31.7409,11111222 
TABS,ioos:station:wmo:42050:1,2016-02-03T05:30:00Z,28.8425,-94.2433,2.0,31.6197,11111222 
TABS,ioos:station:wmo:42050:1,2016-02-03T06:00:00Z,28.8425,-94.2433,2.0,31.598,11111222 
TABS,ioos:station:wmo:42050:1,2016-02-03T06:30:00Z,28.8425,-94.2433,2.0,31.5126,11111222 
TABS,ioos:station:wmo:42050:1,2016-02-03T07:00:00Z,28.8425,-94.2433,2.0,31.0154,11111222 
TABS,ioos:station:wmo:42050:1,2016-02-03T07:30:00Z,28.8425,-94.2433,2.0,30.8288,11111222 
TABS,ioos:station:wmo:42050:1,2016-02-03T08:00:00Z,28.8425,-94.2433,2.0,30.6719,11111222 
TABS,ioos:station:wmo:42050:1,2016-02-03T08:30:00Z,28.8425,-94.2433,2.0,30.549,11111222 
TABS,ioos:station:wmo:42050:1,2016-02-03T09:00:00Z,28.8425,-94.2433,2.0,30.4907,11111222 
TABS,ioos:station:wmo:42050:1,2016-02-03T09:30:00Z,28.8425,-94.2433,2.0,30.4163,11111222 
TABS,ioos:station:wmo:42050:1,2016-02-03T10:00:00Z,28.8425,-94.2433,2.0,30.3006,11111222 
TABS,ioos:station:wmo:42050:1,2016-02-03T10:30:00Z,28.8425,-94.2433,2.0,30.2756,11111222 
TABS,ioos:station:wmo:42050:1,2016-02-03T11:00:00Z,28.8425,-94.2433,2.0,30.2532,11111222 
TABS,ioos:station:wmo:42050:1,2016-02-03T11:30:00Z,28.8425,-94.2433,2.0,30.2587,11111222 
TABS,ioos:station:wmo:42050:1,2016-02-03T12:00:00Z,28.8425,-94.2433,2.0,30.2956,11111222 
TABS,ioos:station:wmo:42050:1,2016-02-03T12:30:00Z,28.8425,-94.2433,2.0,30.3648,11111222 
TABS,ioos:station:wmo:42050:1,2016-02-03T13:00:00Z,28.8425,-94.2433,2.0,30.3985,11111222 
TABS,ioos:station:wmo:42050:1,2016-02-03T13:30:00Z,28.8425,-94.2433,2.0,30.5465,11111222 
TABS,ioos:station:wmo:42050:1,2016-02-03T14:00:00Z,28.8425,-94.2433,2.0,30.838,11111222 
TABS,ioos:station:wmo:42050:1,2016-02-03T14:30:00Z,28.8425,-94.2433,2.0,31.0948,11111222 
TABS,ioos:station:wmo:42050:1,2016-02-03T15:00:00Z,28.8425,-94.2433,2.0,31.3908,11111222 
TABS,ioos:station:wmo:42050:1,2016-02-03T15:30:00Z,28.8425,-94.2433,2.0,31.5684,11111222 
TABS,ioos:station:wmo:42050:1,2016-02-03T16:00:00Z,28.8425,-94.2433,2.0,31.6467,11111222 
TABS,ioos:station:wmo:42050:1,2016-02-03T16:30:00Z,28.8425,-94.2433,2.0,31.702,11111222 
TABS,ioos:station:wmo:42050:1,2016-02-03T17:00:00Z,28.8425,-94.2433,2.0,31.7844,11111222 
TABS,ioos:station:wmo:42050:1,2016-02-03T17:30:00Z,28.8425,-94.2433,2.0,32.048,11111222 
TABS,ioos:station:wmo:42050:1,2016-02-03T18:00:00Z,28.8425,-94.2433,2.0,32.2618,11111222 
TABS,ioos:station:wmo:42050:1,2016-02-03T18:30:00Z,28.8425,-94.2433,2.0,32.2992,11111222 
TABS,ioos:station:wmo:42050:1,2016-02-03T19:00:00Z,28.8425,-94.2433,2.0,32.3276,11111222 
TABS,ioos:station:wmo:42050:1,2016-02-03T19:30:00Z,28.8425,-94.2433,2.0,32.3806,11111222 
TABS,ioos:station:wmo:42050:1,2016-02-03T20:00:00Z,28.8425,-94.2433,2.0,32.3522,11111222 
TABS,ioos:station:wmo:42050:1,2016-02-03T20:30:00Z,28.8425,-94.2433,2.0,32.4089,11111222 
TABS,ioos:station:wmo:42050:1,2016-02-03T21:00:00Z,28.8425,-94.2433,2.0,32.5259,11111222 
TABS,ioos:station:wmo:42050:1,2016-02-03T21:30:00Z,28.8425,-94.2433,2.0,32.6801,11111222 
TABS,ioos:station:wmo:42050:1,2016-02-03T22:00:00Z,28.8425,-94.2433,2.0,32.7563,11111222 
TABS,ioos:station:wmo:42050:1,2016-02-03T22:30:00Z,28.8425,-94.2433,2.0,32.8352,11111222 
TABS,ioos:station:wmo:42050:1,2016-02-03T23:00:00Z,28.8425,-94.2433,2.0,32.8924,11111222 
TABS,ioos:station:wmo:42050:1,2016-02-03T23:30:00Z,28.8425,-94.2433,2.0,33.0138,11111222 
TABS,ioos:station:wmo:42050:1,2016-02-04T00:00:00Z,28.8425,-94.2433,2.0,33.1331,11111222 
TABS,ioos:station:wmo:42050:1,2016-02-04T00:30:00Z,28.8425,-94.2433,2.0,33.2255,11111222 
TABS,ioos:station:wmo:42050:1,2016-02-04T01:00:00Z,28.8425,-94.2433,2.0,33.3337,11111222 
TABS,ioos:station:wmo:42050:1,2016-02-04T01:30:00Z,28.8425,-94.2433,2.0,33.4361,11111222 
TABS,ioos:station:wmo:42050:1,2016-02-04T02:00:00Z,28.8425,-94.2433,2.0,33.0476,11111222 
TABS,ioos:station:wmo:42050:1,2016-02-04T02:30:00Z,28.8425,-94.2433,2.0,33.3135,11111222 
TABS,ioos:station:wmo:42050:1,2016-02-04T03:00:00Z,28.8425,-94.2433,2.0,33.3005,11111222 
TABS,ioos:station:wmo:42050:1,2016-02-04T03:30:00Z,28.8425,-94.2433,2.0,33.3627,11111222 
TABS,ioos:station:wmo:42050:1,2016-02-04T04:00:00Z,28.8425,-94.2433,2.0,33.2541,11111222 
TABS,ioos:station:wmo:42050:1,2016-02-04T04:30:00Z,28.8425,-94.2433,2.0,33.2374,11111222 
TABS,ioos:station:wmo:42050:1,2016-02-04T05:00:00Z,28.8425,-94.2433,2.0,33.2288,11111222 
TABS,ioos:station:wmo:42050:1,2016-02-04T05:30:00Z,28.8425,-94.2433,2.0,33.2857,11111222 
TABS,ioos:station:wmo:42050:1,2016-02-04T06:00:00Z,28.8425,-94.2433,2.0,33.2984,11111222 
TABS,ioos:station:wmo:42050:1,2016-02-04T06:30:00Z,28.8425,-94.2433,2.0,33.3163,11111222 
TABS,ioos:station:wmo:42050:1,2016-02-04T07:00:00Z,28.8425,-94.2433,2.0,33.155,11111222 
TABS,ioos:station:wmo:42050:1,2016-02-04T07:30:00Z,28.8425,-94.2433,2.0,33.3123,11111222 
TABS,ioos:station:wmo:42050:1,2016-02-04T08:00:00Z,28.8425,-94.2433,2.0,33.2731,11111222 
TABS,ioos:station:wmo:42050:1,2016-02-04T08:30:00Z,28.8425,-94.2433,2.0,33.3316,11111222 
TABS,ioos:station:wmo:42050:1,2016-02-04T09:00:00Z,28.8425,-94.2433,2.0,33.3724,11111222 
TABS,ioos:station:wmo:42050:1,2016-02-04T09:30:00Z,28.8425,-94.2433,2.0,33.3651,11111222 
TABS,ioos:station:wmo:42050:1,2016-02-04T10:00:00Z,28.8425,-94.2433,2.0,33.3295,11111222 
TABS,ioos:station:wmo:42050:1,2016-02-04T10:30:00Z,28.8425,-94.2433,2.0,33.427,11111222 
TABS,ioos:station:wmo:42050:1,2016-02-04T11:00:00Z,28.8425,-94.2433,2.0,33.4713,11111222 
TABS,ioos:station:wmo:42050:1,2016-02-04T11:30:00Z,28.8425,-94.2433,2.0,33.5471,11111222 
TABS,ioos:station:wmo:42050:1,2016-02-04T12:00:00Z,28.8425,-94.2433,2.0,33.6102,11111222 
TABS,ioos:station:wmo:42050:1,2016-02-04T12:30:00Z,28.8425,-94.2433,2.0,33.6879,11111222 
TABS,ioos:station:wmo:42050:1,2016-02-04T13:00:00Z,28.8425,-94.2433,2.0,34.0975,11111222 
TABS,ioos:station:wmo:42050:1,2016-02-04T13:30:00Z,28.8425,-94.2433,2.0,34.2935,11111222 
TABS,ioos:station:wmo:42050:1,2016-02-04T14:00:00Z,28.8425,-94.2433,2.0,34.3282,11111222 
TABS,ioos:station:wmo:42050:1,2016-02-04T14:30:00Z,28.8425,-94.2433,2.0,34.3714,11111222 
TABS,ioos:station:wmo:42050:1,2016-02-04T15:00:00Z,28.8425,-94.2433,2.0,34.3862,11111222 
TABS,ioos:station:wmo:42050:1,2016-02-04T15:30:00Z,28.8425,-94.2433,2.0,34.4183,11111222 
TABS,ioos:station:wmo:42050:1,2016-02-04T16:00:00Z,28.8425,-94.2433,2.0,34.4263,11111222 
TABS,ioos:station:wmo:42050:1,2016-02-04T16:30:00Z,28.8425,-94.2433,2.0,34.4404,11111222 
TABS,ioos:station:wmo:42050:1,2016-02-04T17:00:00Z,28.8425,-94.2433,2.0,34.4645,11111222 
TABS,ioos:station:wmo:42050:1,2016-02-04T17:30:00Z,28.8425,-94.2433,2.0,34.4514,11111222 
TABS,ioos:station:wmo:42050:1,2016-02-04T18:00:00Z,28.8425,-94.2433,2.0,34.4614,11111222 
TABS,ioos:station:wmo:42050:1,2016-02-04T18:30:00Z,28.8425,-94.2433,2.0,34.3855,11111222 
TABS,ioos:station:wmo:42050:1,2016-02-04T19:00:00Z,28.8425,-94.2433,2.0,34.3871,11111222 
TABS,ioos:station:wmo:42050:1,2016-02-04T19:30:00Z,28.8425,-94.2433,2.0,34.3905,11111222 
TABS,ioos:station:wmo:42050:1,2016-02-04T20:00:00Z,28.8425,-94.2433,2.0,34.3907,11111222 
TABS,ioos:station:wmo:42050:1,2016-02-04T20:30:00Z,28.8425,-94.2433,2.0,34.4042,11111222 
TABS,ioos:station:wmo:42050:1,2016-02-04T21:00:00Z,28.8425,-94.2433,2.0,34.4176,11111222 
TABS,ioos:station:wmo:42050:1,2016-02-04T21:30:00Z,28.8425,-94.2433,2.0,34.4439,11111222 
TABS,ioos:station:wmo:42050:1,2016-02-04T22:00:00Z,28.8425,-94.2433,2.0,34.4648,11111222 
TABS,ioos:station:wmo:42050:1,2016-02-04T22:30:00Z,28.8425,-94.2433,2.0,34.4945,11111222 
TABS,ioos:station:wmo:42050:1,2016-02-04T23:00:00Z,28.8425,-94.2433,2.0,34.5216,11111222 
TABS,ioos:station:wmo:42050:1,2016-02-04T23:30:00Z,28.8425,-94.2433,2.0,34.529,11111222 
TABS,ioos:station:wmo:42050:1,2016-02-05T00:00:00Z,28.8425,-94.2433,2.0,34.5549,11111222 
TABS,ioos:station:wmo:42050:1,2016-02-05T00:30:00Z,28.8425,-94.2433,2.0,34.5608,11111222 
TABS,ioos:station:wmo:42050:1,2016-02-05T01:00:00Z,28.8425,-94.2433,2.0,34.5646,11111222 
TABS,ioos:station:wmo:42050:1,2016-02-05T01:30:00Z,28.8425,-94.2433,2.0,34.5652,11111222 
TABS,ioos:station:wmo:42050:1,2016-02-05T02:00:00Z,28.8425,-94.2433,2.0,34.5674,11111222 
TABS,ioos:station:wmo:42050:1,2016-02-05T02:30:00Z,28.8425,-94.2433,2.0,34.5699,11111222 
TABS,ioos:station:wmo:42050:1,2016-02-05T03:00:00Z,28.8425,-94.2433,2.0,34.5792,11111222 
TABS,ioos:station:wmo:42050:1,2016-02-05T03:30:00Z,28.8425,-94.2433,2.0,34.5877,11111222 
TABS,ioos:station:wmo:42050:1,2016-02-05T04:00:00Z,28.8425,-94.2433,2.0,34.5879,11111222 
TABS,ioos:station:wmo:42050:1,2016-02-05T04:30:00Z,28.8425,-94.2433,2.0,34.5921,11111222 
TABS,ioos:station:wmo:42050:1,2016-02-05T05:00:00Z,28.8425,-94.2433,2.0,34.5966,11111222 
TABS,ioos:station:wmo:42050:1,2016-02-05T05:30:00Z,28.8425,-94.2433,2.0,34.6002,11111222 
TABS,ioos:station:wmo:42050:1,2016-02-05T06:00:00Z,28.8425,-94.2433,2.0,34.6179,11111222 
TABS,ioos:station:wmo:42050:1,2016-02-05T06:30:00Z,28.8425,-94.2433,2.0,34.6376,11111222 
TABS,ioos:station:wmo:42050:1,2016-02-05T07:00:00Z,28.8425,-94.2433,2.0,34.6435,11111222 
TABS,ioos:station:wmo:42050:1,2016-02-05T07:30:00Z,28.8425,-94.2433,2.0,34.6646,11111222 
TABS,ioos:station:wmo:42050:1,2016-02-05T08:00:00Z,28.8425,-94.2433,2.0,34.7018,11111222 
TABS,ioos:station:wmo:42050:1,2016-02-05T08:30:00Z,28.8425,-94.2433,2.0,34.7258,11111222 
TABS,ioos:station:wmo:42050:1,2016-02-05T09:00:00Z,28.8425,-94.2433,2.0,34.7833,11111222 
TABS,ioos:station:wmo:42050:1,2016-02-05T09:30:00Z,28.8425,-94.2433,2.0,34.806,11111222 
TABS,ioos:station:wmo:42050:1,2016-02-05T10:00:00Z,28.8425,-94.2433,2.0,34.824,11111222 
TABS,ioos:station:wmo:42050:1,2016-02-05T10:30:00Z,28.8425,-94.2433,2.0,34.8399,11111222 
TABS,ioos:station:wmo:42050:1,2016-02-05T11:00:00Z,28.8425,-94.2433,2.0,34.8424,11111222 
TABS,ioos:station:wmo:42050:1,2016-02-05T11:30:00Z,28.8425,-94.2433,2.0,34.856,11111222 
TABS,ioos:station:wmo:42050:1,2016-02-05T12:00:00Z,28.8425,-94.2433,2.0,34.866,11111222 
TABS,ioos:station:wmo:42050:1,2016-02-05T15:00:00Z,28.8425,-94.2433,2.0,35.0059,11111222 
TABS,ioos:station:wmo:42050:1,2016-02-05T15:30:00Z,28.8425,-94.2433,2.0,35.0113,11111222 
TABS,ioos:station:wmo:42050:1,2016-02-05T16:00:00Z,28.8425,-94.2433,2.0,35.0217,11111222 
TABS,ioos:station:wmo:42050:1,2016-02-05T16:30:00Z,28.8425,-94.2433,2.0,35.0348,11111222 
TABS,ioos:station:wmo:42050:1,2016-02-05T17:00:00Z,28.8425,-94.2433,2.0,35.0466,11111222 
TABS,ioos:station:wmo:42050:1,2016-02-05T17:30:00Z,28.8425,-94.2433,2.0,35.0592,11111222 
TABS,ioos:station:wmo:42050:1,2016-02-05T18:00:00Z,28.8425,-94.2433,2.0,35.0777,11111222 
TABS,ioos:station:wmo:42050:1,2016-02-05T18:30:00Z,28.8425,-94.2433,2.0,35.0858,11111222 
TABS,ioos:station:wmo:42050:1,2016-02-05T19:00:00Z,28.8425,-94.2433,2.0,35.092,11111222 
TABS,ioos:station:wmo:42050:1,2016-02-05T19:30:00Z,28.8425,-94.2433,2.0,35.11,11111222 
TABS,ioos:station:wmo:42050:1,2016-02-05T20:00:00Z,28.8425,-94.2433,2.0,35.0821,11111222 
TABS,ioos:station:wmo:42050:1,2016-02-05T20:30:00Z,28.8425,-94.2433,2.0,35.0824,11111222 
TABS,ioos:station:wmo:42050:1,2016-02-05T21:00:00Z,28.8425,-94.2433,2.0,35.0685,11111222 
TABS,ioos:station:wmo:42050:1,2016-02-05T21:30:00Z,28.8425,-94.2433,2.0,35.0531,11111222 
TABS,ioos:station:wmo:42050:1,2016-02-05T22:00:00Z,28.8425,-94.2433,2.0,35.0331,11111222 
TABS,ioos:station:wmo:42050:1,2016-02-05T22:30:00Z,28.8425,-94.2433,2.0,35.0277,11111222 
TABS,ioos:station:wmo:42050:1,2016-02-05T23:00:00Z,28.8425,-94.2433,2.0,35.0228,11111222 
TABS,ioos:station:wmo:42050:1,2016-02-05T23:30:00Z,28.8425,-94.2433,2.0,35.0182,11111222 
TABS,ioos:station:wmo:42050:1,2016-02-06T00:00:00Z,28.8425,-94.2433,2.0,35.0111,11111222 
TABS,ioos:station:wmo:42050:1,2016-02-06T00:30:00Z,28.8425,-94.2433,2.0,35.0111,11111222 
TABS,ioos:station:wmo:42050:1,2016-02-06T01:00:00Z,28.8425,-94.2433,2.0,35.0044,11111222 
TABS,ioos:station:wmo:42050:1,2016-02-06T01:30:00Z,28.8425,-94.2433,2.0,35.0013,11111222 
TABS,ioos:station:wmo:42050:1,2016-02-06T02:00:00Z,28.8425,-94.2433,2.0,34.9933,11111222 
TABS,ioos:station:wmo:42050:1,2016-02-06T02:30:00Z,28.8425,-94.2433,2.0,34.9925,11111222 
TABS,ioos:station:wmo:42050:1,2016-02-06T03:00:00Z,28.8425,-94.2433,2.0,34.9844,11111222 
TABS,ioos:station:wmo:42050:1,2016-02-06T03:30:00Z,28.8425,-94.2433,2.0,34.9807,11111222 
TABS,ioos:station:wmo:42050:1,2016-02-06T04:00:00Z,28.8425,-94.2433,2.0,34.9754,11111222 
TABS,ioos:station:wmo:42050:1,2016-02-06T04:30:00Z,28.8425,-94.2433,2.0,34.9702,11111222 
TABS,ioos:station:wmo:42050:1,2016-02-06T05:00:00Z,28.8425,-94.2433,2.0,34.9656,11111222 
TABS,ioos:station:wmo:42050:1,2016-02-06T05:30:00Z,28.8425,-94.2433,2.0,34.9515,11111222 
TABS,ioos:station:wmo:42050:1,2016-02-06T06:00:00Z,28.8425,-94.2433,2.0,34.9399,11111222 
TABS,ioos:station:wmo:42050:1,2016-02-06T06:30:00Z,28.8425,-94.2433,2.0,34.9322,11111222 
TABS,ioos:station:wmo:42050:1,2016-02-06T07:00:00Z,28.8425,-94.2433,2.0,34.9204,11111222 
TABS,ioos:station:wmo:42050:1,2016-02-06T07:30:00Z,28.8425,-94.2433,2.0,34.9155,11111222 
TABS,ioos:station:wmo:42050:1,2016-02-06T08:00:00Z,28.8425,-94.2433,2.0,34.9064,11111222 
TABS,ioos:station:wmo:42050:1,2016-02-06T08:30:00Z,28.8425,-94.2433,2.0,34.8981,11111222 
TABS,ioos:station:wmo:42050:1,2016-02-06T09:00:00Z,28.8425,-94.2433,2.0,34.8893,11111222 
TABS,ioos:station:wmo:42050:1,2016-02-06T09:30:00Z,28.8425,-94.2433,2.0,34.8746,11111222 
TABS,ioos:station:wmo:42050:1,2016-02-06T10:00:00Z,28.8425,-94.2433,2.0,34.8633,11111222 
TABS,ioos:station:wmo:42050:1,2016-02-06T10:30:00Z,28.8425,-94.2433,2.0,34.8531,11111222 
TABS,ioos:station:wmo:42050:1,2016-02-06T11:00:00Z,28.8425,-94.2433,2.0,34.838,11111222 
TABS,ioos:station:wmo:42050:1,2016-02-06T11:30:00Z,28.8425,-94.2433,2.0,34.8138,11111222 
TABS,ioos:station:wmo:42050:1,2016-02-06T12:00:00Z,28.8425,-94.2433,2.0,34.8034,11111222 
TABS,ioos:station:wmo:42050:1,2016-02-06T12:30:00Z,28.8425,-94.2433,2.0,34.7956,11111222 
TABS,ioos:station:wmo:42050:1,2016-02-06T13:00:00Z,28.8425,-94.2433,2.0,34.7777,11111222 
TABS,ioos:station:wmo:42050:1,2016-02-06T13:30:00Z,28.8425,-94.2433,2.0,34.7574,11111222 
TABS,ioos:station:wmo:42050:1,2016-02-06T14:00:00Z,28.8425,-94.2433,2.0,34.737,11111222 
TABS,ioos:station:wmo:42050:1,2016-02-06T14:30:00Z,28.8425,-94.2433,2.0,34.7244,11111222 